Eveleth, MN

5:57 AM CST on February 13, 2016 (GMT -0600)
Eveleth-Virginia Municipal

Weather History for KEVM - November, 2011

Change the Weather History Date:

Wednesday, November 2, 2011

  Actual Average Record
Temperature  
Mean Temperature 39 °F -  
Max Temperature 46 °F 41 °F 69 °F (1990)
Min Temperature 32 °F 26 °F 14 °F (1991)
Degree Days  
Heating Degree Days 26    
Moisture  
Dew Point 31 °F    
Average Humidity 73    
Maximum Humidity 100    
Minimum Humidity 53    
Precipitation  
Precipitation 0.00 in - - ()
Sea Level Pressure  
Sea Level Pressure 30.15 in    
Wind  
Wind Speed 4 mph (NW)    
Max Wind Speed 14 mph    
Max Gust Speed 18 mph    
Visibility 10 miles    
Events      
Averages and records for this station are not official NWS values.
T = Trace of Precipitation, MM = Missing Value Source: NWS Daily Summary

Daily Weather History Graph

Daily Weather History Graph

Search for Another Location

Airport or City:

Trip Planner

Search our weather history database for the weather conditions in past years. The results will help you decide how hot, cold, wet, or windy it might be!

Date:

Astronomy

Nov. 02, 2011 Rise Set
Actual Time 7:54 AM CDT 5:51 PM CDT
Civil Twilight 7:22 AM CDT 6:23 PM CDT
Nautical Twilight 6:46 AM CDT 7:00 PM CDT
Astronomical Twilight 6:10 AM CDT 7:35 PM CDT
Moon 2:14 PM CDT (11/2) No Moon Set
Length of Visible Light 11h 01m
Length of Day
9h 56m
Waxing Crescent, 50% of the Moon is Illuminated
Nov 2
Waxing Crescent
Nov 10
Full
Nov 18
Last Quarter
Nov 25
New
Dec 2
First Quarter

Hourly Weather History & Observations

Time (CDT) Temp. Windchill Dew Point Humidity Pressure Visibility Wind Dir Wind Speed Gust Speed Precip Events Conditions
12:12 AM 37.4 °F 34.9 °F 35.6 °F 93% 30.05 in 10.0 mi WNW 3.5 mph - N/A   Clear
12:33 AM 37.4 °F - 33.8 °F 87% 30.05 in 10.0 mi Calm Calm - N/A   Clear
12:53 AM 35.6 °F - 32.0 °F 87% 30.06 in 10.0 mi Calm Calm - N/A   Clear
1:12 AM 33.8 °F - 32.0 °F 93% 30.06 in 7.0 mi Calm Calm - N/A   Clear
1:33 AM 32.0 °F - 32.0 °F 100% 30.07 in 10.0 mi Calm Calm - N/A   Clear
1:53 AM 32.0 °F - 32.0 °F 100% 30.07 in 10.0 mi Calm Calm - N/A   Scattered Clouds
2:12 AM 32.0 °F - 32.0 °F 100% 30.07 in 10.0 mi Calm Calm - N/A   Clear
2:33 AM 33.8 °F 30.8 °F 32.0 °F 93% 30.08 in 10.0 mi WNW 3.5 mph - N/A   Clear
2:52 AM 37.4 °F 34.9 °F 33.8 °F 87% 30.08 in 10.0 mi NW 3.5 mph - N/A   Clear
3:12 AM 32.0 °F - 30.2 °F 93% 30.08 in 10.0 mi Calm Calm - N/A   Clear
3:33 AM 35.6 °F 32.8 °F 32.0 °F 87% 30.09 in 10.0 mi WNW 3.5 mph - N/A   Clear
3:52 AM 37.4 °F - 32.0 °F 81% 30.08 in 10.0 mi Calm Calm - N/A   Scattered Clouds
4:52 AM 35.6 °F 32.8 °F 32.0 °F 87% 30.10 in 10.0 mi West 3.5 mph - N/A   Scattered Clouds
5:52 AM 37.4 °F - 32.0 °F 81% 30.10 in 10.0 mi Calm Calm - N/A   Clear
6:12 AM 37.4 °F 34.9 °F 32.0 °F 81% 30.11 in 10.0 mi West 3.5 mph - N/A   Clear
6:32 AM 35.6 °F 31.7 °F 32.0 °F 87% 30.12 in 10.0 mi WNW 4.6 mph - N/A   Clear
6:52 AM 37.4 °F 33.8 °F 32.0 °F 81% 30.12 in 10.0 mi WNW 4.6 mph - N/A   Clear
7:32 AM 37.4 °F 32.1 °F 32.0 °F 81% 30.13 in 10.0 mi NW 6.9 mph - N/A   Clear
7:52 AM 37.4 °F 30.3 °F 32.0 °F 81% 30.14 in 10.0 mi WNW 10.4 mph - N/A   Clear
8:13 AM 37.4 °F 32.8 °F 32.0 °F 81% 30.14 in 10.0 mi NW 5.8 mph - N/A   Clear
8:33 AM 37.4 °F 32.8 °F 32.0 °F 81% 30.15 in 10.0 mi WNW 5.8 mph - N/A   Clear
8:52 AM 37.4 °F 32.1 °F 32.0 °F 81% 30.15 in 10.0 mi WNW 6.9 mph - N/A   Clear
9:13 AM 37.4 °F 32.1 °F 32.0 °F 81% 30.16 in 10.0 mi WNW 6.9 mph - N/A   Clear
9:32 AM 37.4 °F 32.1 °F 32.0 °F 81% 30.16 in 10.0 mi WNW 6.9 mph - N/A   Clear
9:53 AM 37.4 °F 33.8 °F 32.0 °F 81% 30.15 in 10.0 mi NW 4.6 mph - N/A   Clear
10:13 AM 37.4 °F - 32.0 °F 81% 30.16 in 10.0 mi Calm Calm - N/A   Clear
10:32 AM 37.4 °F 33.8 °F 32.0 °F 81% 30.16 in 10.0 mi NNW 4.6 mph - N/A   Clear
10:53 AM 37.4 °F 33.8 °F 32.0 °F 81% 30.17 in 10.0 mi NNW 4.6 mph - N/A   Clear
11:13 AM 39.2 °F 35.0 °F 32.0 °F 75% 30.18 in 10.0 mi NW 5.8 mph - N/A   Clear
11:32 AM 41.0 °F 39.0 °F 32.0 °F 70% 30.18 in 10.0 mi West 3.5 mph - N/A   Clear
11:53 AM 41.0 °F 35.8 °F 32.0 °F 70% 30.19 in 10.0 mi WNW 8.1 mph - N/A   Clear
12:13 PM 42.8 °F 37.0 °F 32.0 °F 66% 30.18 in 10.0 mi NW 10.4 mph - N/A   Clear
12:32 PM 42.8 °F 37.0 °F 32.0 °F 66% 30.18 in 10.0 mi NW 10.4 mph 17.3 mph N/A   Clear
12:53 PM 42.8 °F 35.8 °F 32.0 °F 66% 30.17 in 10.0 mi WNW 13.8 mph 17.3 mph N/A   Clear
1:13 PM 44.6 °F 41.4 °F 32.0 °F 61% 30.16 in 10.0 mi NW 5.8 mph - N/A   Clear
1:32 PM 44.6 °F 40.2 °F 32.0 °F 61% 30.17 in 10.0 mi NW 8.1 mph 16.1 mph N/A   Clear
1:53 PM 44.6 °F 39.7 °F 32.0 °F 61% 30.17 in 10.0 mi NW 9.2 mph - N/A   Clear
2:13 PM 44.6 °F 39.7 °F 32.0 °F 61% 30.17 in 10.0 mi WNW 9.2 mph - N/A   Scattered Clouds
2:32 PM 46.4 °F 40.7 °F 32.0 °F 57% 30.17 in 10.0 mi NNW 12.7 mph - N/A   Scattered Clouds
2:53 PM 44.6 °F 38.8 °F 30.2 °F 57% 30.17 in 10.0 mi NW 11.5 mph 16.1 mph N/A   Scattered Clouds
3:13 PM 44.6 °F 39.7 °F 30.2 °F 57% 30.16 in 10.0 mi WNW 9.2 mph - N/A   Scattered Clouds
3:32 PM 46.4 °F 40.7 °F 30.2 °F 53% 30.15 in 10.0 mi NW 12.7 mph 18.4 mph N/A   Mostly Cloudy
3:53 PM 44.6 °F 38.8 °F 30.2 °F 57% 30.16 in 10.0 mi NNW 11.5 mph 16.1 mph N/A   Overcast
4:12 PM 44.6 °F 39.7 °F 28.4 °F 53% 30.17 in 10.0 mi NNW 9.2 mph - N/A   Scattered Clouds
4:33 PM 44.6 °F 40.2 °F 28.4 °F 53% 30.17 in 10.0 mi North 8.1 mph - N/A   Scattered Clouds
4:53 PM 42.8 °F 39.3 °F 26.6 °F 53% 30.18 in 10.0 mi NNW 5.8 mph - N/A   Clear
5:12 PM 42.8 °F 40.1 °F 26.6 °F 53% 30.18 in 10.0 mi WNW 4.6 mph - N/A   Scattered Clouds
5:33 PM 42.8 °F 39.3 °F 28.4 °F 57% 30.18 in 10.0 mi WNW 5.8 mph - N/A   Scattered Clouds
5:53 PM 41.0 °F 37.1 °F 26.6 °F 57% 30.19 in 10.0 mi WNW 5.8 mph - N/A   Clear
6:12 PM 41.0 °F 38.0 °F 28.4 °F 61% 30.19 in 10.0 mi WNW 4.6 mph - N/A   Clear
6:33 PM 37.4 °F 33.8 °F 26.6 °F 65% 30.20 in 10.0 mi WNW 4.6 mph - N/A   Clear
6:53 PM 37.4 °F 32.8 °F 28.4 °F 70% 30.20 in 10.0 mi WNW 5.8 mph - N/A   Clear
7:12 PM 37.4 °F 33.8 °F 26.6 °F 65% 30.21 in 10.0 mi WNW 4.6 mph - N/A   Clear
7:33 PM 37.4 °F 33.8 °F 26.6 °F 65% 30.21 in 10.0 mi NW 4.6 mph - N/A   Clear
7:52 PM 37.4 °F 32.8 °F 26.6 °F 65% 30.21 in 10.0 mi WNW 5.8 mph - N/A   Clear
8:12 PM 37.4 °F 31.4 °F 26.6 °F 65% 30.21 in 10.0 mi NW 8.1 mph - N/A   Clear
8:32 PM 37.4 °F 32.1 °F 26.6 °F 65% 30.21 in 10.0 mi WNW 6.9 mph - N/A   Clear
8:52 PM 37.4 °F 33.8 °F 26.6 °F 65% 30.21 in 10.0 mi West 4.6 mph - N/A   Clear
9:13 PM 35.6 °F 30.7 °F 26.6 °F 70% 30.21 in 10.0 mi West 5.8 mph - N/A   Clear
9:32 PM 35.6 °F 29.2 °F 26.6 °F 70% 30.22 in 10.0 mi WNW 8.1 mph - N/A   Clear
9:52 PM 35.6 °F 29.9 °F 26.6 °F 70% 30.22 in 10.0 mi WNW 6.9 mph - N/A   Clear
10:13 PM 35.6 °F 31.7 °F 26.6 °F 70% 30.22 in 10.0 mi West 4.6 mph - N/A   Clear
10:33 PM 35.6 °F 31.7 °F 26.6 °F 70% 30.22 in 10.0 mi West 4.6 mph - N/A   Clear
10:53 PM 33.8 °F 28.6 °F 26.6 °F 75% 30.21 in 10.0 mi West 5.8 mph - N/A   Clear
11:12 PM 33.8 °F 28.6 °F 26.6 °F 75% 30.21 in 10.0 mi West 5.8 mph - N/A   Clear
11:32 PM 33.8 °F 30.8 °F 26.6 °F 75% 30.22 in 10.0 mi West 3.5 mph - N/A   Clear
11:53 PM 32.0 °F 27.5 °F 24.8 °F 75% 30.21 in 10.0 mi WNW 4.6 mph - N/A   Clear